Presure
137 122 107 148 155 143 143 126 130 147 148 151 171 166 176 185 195 205 194 204 219 225 235 226 225 234 262 259 264 205 237 148 145 127 159 215 172 167 187 208 152 211 182
128 128 126 128 146 160 154 145 158 158 182 170 184 179 202 198 179 226 236 278 273 270 288 284 273 259 195 250 267 240 257 253 236 249 245 242 224 232 150 173 227 241 152
149 160 159 159 149 140 145 172 162 173 181 173 164 218 233 280 279 253 253 243 255 258 237 252 262 262 269 261 265 261 254 263 252 254 247 233 238 254 246 234 241 169 134
148 153 171 156 158 153 177 163 176 198 200 273 248 275 286 273 286 286 272 277 267 266 259 254 251 254 257 256 263 262 263 248 243 270 272 244 230 224 238 217 197 218 241
148 154 160 154 155 168 171 174 227 221 284 312 300 296 293 285 278 263 279 274 266 263 238 245 249 235 224 223 224 230 234 240 239 240 244 247 234 239 227 231 245 237 227
171 154 152 151 168 161 209 233 297 299 273 286 289 281 295 276 274 277 258 259 288 281 271 280 282 283 256 258 241 255 251 245 238 232 232 238 238 222 224 235 229 216 224
148 161 169 178 191 283 229 262 289 281 304 277 288 287 279 276 270 257 261 258 258 255 262 263 273 270 262 270 258 262 236 240 239 220 242 231 231 226 230 209 234 221 233
164 178 273 344 227 295 354 299 239 321 306 288 269 295 297 281 277 271 260 248 249 248 242 249 252 255 261 262 262 243 236 242 257 248 234 222 221 169 217 216 214 206 226
172 209 228 248 247 286 252 263 230 274 208 233 228 215 202 256 261 263 257 247 250 235 241 240 242 242 245 242 250 250 231 253 236 238 229 222 233 206 208 209 208 217 213
205 205 244 254 249 231 243 238 239 237 227 248 247 236 230 216 217 212 216 209 206 256 260 247 236 237 236 239 241 235 240 253 232 233 216 227 221 215 206 205 219 203 201
270 259 258 244 242 240 230 228 219 207 210 213 210 215 211 215 218 215 217 220 222 218 222 248 250 247 234 232 226 238 234 240 232 238 215 120 217 193 207 196 203 201 203
254 240 233 231 219 210 215 208 208 206 204 203 199 204 199 205 212 203 206 214 192 203 175 209 218 226 248 251 235 230 226 231 240 233 221 214 204 204 196 198 202 192 192
233 227 216 215 209 207 205 198 197 196 198 195 195 196 197 197 195 196 204 206 205 204 203 203 205 204 216 225 240 242 231 226 234 214 221 205 195 197 207 209 195 201 194
227 226 197 203 170 201 199 198 201 195 198 184 185 185 188 186 189 194 199 200 195 191 198 198 204 203 205 206 210 214 239 234 236 237 226 207 205 209 194 209 201 191 198
219 205 204 199 196 195 182 187 184 184 188 192 190 189 182 170 178 181 186 186 189 191 191 189 187 186 191 195 202 205 211 211 234 243 244 223 211 206 194 205 200 86 198
201 203 192 187 182 182 181 182 185 184 183 181 181 182 179 182 181 181 179 180 181 185 182 183 180 190 190 186 190 196 196 200 204 213 225 243 219 219 198 196 201 194 197
202 178 183 190 189 182 180 179 185 181 177 178 173 170 184 187 185 180 181 184 176 177 174 189 191 184 186 182 183 186 184 184 194 199 204 214 220 245 209 197 201 192 193
186 172 176 170 162 157 156 159 175 152 167 147 167 161 181 182 183 193 187 185 186 192 191 192 190 186 186 187 177 187 180 181 186 192 199 199 204 217 219 242 202 195 186
174 186 181 175 167 160 168 179 167 172 157 185 160 179 176 176 183 170 174 191 172 161 182 183 176 198 200 200 202 190 181 192 187 178 181 197 196 200 204 213 224 218 204
178 201 187 190 185 135 171 149 173 156 182 178 149 159 152 145 175 164 184 184 184 189 188 183 186 165 188 190 186 186 204 198 190 193 185 175 186 196 191 196 205 216 230
183 170 196 198 183 189 165 167 153 166 172 146 162 136 120 115 135 134 146 186 191 180 165 185 195 189 194 203 203 210 213 204 201 194 198 198 174 178 195 201 197 194 207
200 172 175 103 182 133 140 135 165 178 174 164 177 177 150 115 168 134 138 181 157 192 200 186 219 218 223 216 220 225 221 218 224 231 225 223 204 201 201 195 202 200 193
190 141 98 121 186 182 139 184 173 171 157 166 158 187 153 175 170 143 177 197 205 218 213 222 221 214 227 232 198 219 233 209 159 238 239 234 235 231 214 209 206 198 203
124 115 137 177 188 186 186 186 179 155 177 182 166 187 180 181 126 198 205 216 220 213 218 219 212 216 226 239 151 258 163 261 265 256 227 245 241 237 222 220 216 213 202
177 165 170 180 180 177 160 178 180 186 184 181 185 189 194 201 206 212 211 195 205 220 218 252 265 269 264 280 271 276 307 158 287 279 280 284 282 289 265 255 238 230 225
183 163 170 171 174 168 185 183 182 163 155 195 195 201 208 215 208 203 204 229 201 181 249 267 277 269 269 309 297 308 295 296 290 282 289 294 286 268 293 270 283 308 284
Wind_Speed
79 76 57 84 88 88 92 90 90 95 99 99 121 114 129 134 134 139 131 124 119 114 104 101 104 101 85 87 83 94 87 95 93 83 102 78 113 115 80 97 95 63 113
67 85 85 87 91 95 92 96 106 110 132 115 130 130 141 136 118 119 113 80 88 79 63 65 68 71 85 75 69 72 70 71 70 70 70 64 69 65 91 98 75 65 100
85 91 94 96 94 93 98 123 113 124 131 114 107 128 119 81 78 89 85 82 74 66 83 78 67 64 62 61 59 62 62 60 63 63 65 64 62 49 53 60 58 95 81
89 92 115 103 104 101 129 111 134 138 138 86 99 77 63 70 57 52 58 56 56 56 57 59 58 56 53 50 50 48 52 48 51 49 49 55 58 61 56 70 78 70 58
92 96 108 100 102 119 123 120 128 126 67 42 48 46 48 46 45 50 47 48 50 50 52 54 57 53 54 52 51 50 52 51 47 51 53 50 48 54 58 60 55 60 60
116 100 100 100 116 104 134 113 49 43 55 38 38 40 36 36 33 33 37 36 32 35 37 39 39 39 50 56 58 54 51 49 46 44 49 49 48 54 57 57 55 59 58
93 106 121 123 134 59 98 63 37 38 27 33 25 26 26 26 27 30 29 29 28 28 28 28 28 30 33 35 40 41 40 42 42 48 49 51 49 46 43 63 50 53 53
112 127 69 23 97 48 15 30 60 16 15 15 20 17 18 18 19 20 20 22 23 24 25 23 23 24 26 27 31 37 39 38 41 45 50 53 52 36 53 54 50 55 49
119 99 92 61 52 15 33 21 39 9 46 27 27 32 37 15 12 11 11 14 17 24 22 21 22 22 22 25 26 31 36 35 37 46 48 51 51 56 51 48 47 46 50
111 104 53 39 32 43 31 31 24 22 26 18 18 17 22 33 32 35 34 34 33 14 12 19 21 21 21 21 24 28 30 29 34 41 48 45 47 45 47 49 52 55 54
25 27 23 28 25 24 23 22 24 26 23 21 22 20 22 19 20 21 23 22 24 28 26 18 19 23 23 22 26 23 26 29 35 39 49 46 44 58 46 54 53 53 49
15 20 23 23 21 27 24 24 25 26 22 25 24 26 24 30 31 27 30 30 26 26 30 26 26 24 18 19 25 27 30 30 33 40 47 49 50 51 55 58 54 56 55
21 20 25 23 24 23 23 26 27 28 28 29 29 30 32 32 31 34 36 36 35 34 32 31 29 23 27 26 21 22 28 35 33 40 47 51 55 57 61 61 57 58 62
20 14 31 23 47 22 23 24 25 27 28 31 32 33 33 34 35 35 38 39 37 34 38 36 36 36 34 31 30 28 24 29 31 38 46 57 58 60 58 61 60 60 59
17 22 20 22 25 25 36 32 32 32 30 31 31 33 35 40 38 37 39 40 40 40 39 37 35 35 38 38 38 36 34 31 27 27 36 51 59 61 61 64 65 47 63
26 19 24 30 33 34 36 37 35 37 36 36 37 39 41 42 42 43 41 40 40 42 42 43 39 42 40 39 40 44 42 42 39 36 36 34 53 59 64 66 67 64 69
24 39 31 28 28 34 37 40 39 40 41 42 41 42 46 48 48 47 47 49 43 42 41 51 52 49 48 43 44 44 41 42 48 49 45 43 43 42 66 69 73 70 70
33 41 38 43 49 51 52 50 41 52 46 48 44 46 52 53 54 57 55 54 54 59 58 57 54 52 52 54 48 55 50 49 49 52 56 55 51 50 51 49 79 77 72
37 33 39 44 48 53 49 47 52 49 51 54 48 56 53 55 58 48 53 64 52 55 56 55 53 64 64 64 64 60 56 61 58 55 55 59 60 60 58 57 60 74 85
38 36 36 38 41 46 49 52 52 54 57 57 51 52 41 42 55 51 63 64 64 69 69 65 67 59 63 65 60 62 72 67 64 66 65 63 61 65 66 67 66 65 75
44 47 44 46 45 49 53 53 57 51 56 48 60 36 30 32 46 47 58 70 75 59 61 69 84 72 79 88 83 83 81 77 74 72 75 75 68 68 71 74 75 72 72
49 51 49 32 52 49 52 52 60 63 60 55 66 69 55 40 70 55 60 70 73 85 92 82 95 90 89 88 89 87 85 83 86 86 85 85 79 77 80 78 80 81 79
52 38 35 42 58 61 55 64 61 65 55 66 66 84 60 79 78 60 77 95 98 98 97 100 94 90 95 96 84 90 92 78 64 92 91 89 90 90 87 87 87 85 86
34 35 50 53 62 67 72 74 73 53 78 83 72 88 85 85 52 101 103 102 102 98 101 99 93 95 100 102 69 91 72 92 94 94 90 93 93 95 91 93 94 95 92
54 57 65 67 69 71 64 76 79 85 85 84 88 91 96 102 105 103 101 89 97 104 100 99 98 99 101 104 96 94 90 54 91 91 94 96 97 99 102 102 103 105 105
56 60 65 67 70 63 79 81 84 72 67 99 102 103 102 103 100 95 96 102 93 80 108 106 105 102 99 102 101 92 87 88 88 88 91 92 94 98 96 100 99 98 106
Wind_Direction
291 293 298 280 287 295 293 287 285 285 287 280 292 286 291 292 291 290 288 288 287 285 282 279 278 278 273 273 268 269 268 261 260 260 260 262 254 257 253 254 257 247 250
291 286 289 288 285 294 286 284 289 290 295 290 294 292 292 291 291 288 287 281 279 281 279 277 271 270 273 271 267 267 263 265 263 262 261 258 257 256 259 258 250 250 254
287 297 296 295 287 289 290 298 293 292 292 291 292 291 289 284 281 282 280 283 283 273 281 275 273 270 270 264 264 262 265 266 261 261 257 253 252 240 242 246 244 253 255
290 293 304 294 294 291 297 295 297 297 294 288 289 287 288 288 285 283 285 280 277 275 275 275 276 274 270 266 263 262 262 258 259 253 246 249 247 246 237 246 251 245 239
288 295 298 293 293 296 298 297 294 294 285 288 289 289 290 287 284 282 282 279 277 277 275 272 269 268 268 267 264 261 259 258 255 254 249 240 238 232 234 241 238 238 242
301 294 292 293 296 295 295 296 296 294 289 288 290 289 295 290 294 295 289 292 291 285 282 280 275 272 268 266 263 265 259 258 250 247 247 236 234 231 234 229 235 235 237
293 295 296 297 297 296 297 294 295 297 304 301 303 305 305 306 305 299 302 300 299 298 294 291 287 281 274 271 265 263 257 254 247 246 235 232 226 222 228 238 236 232 236
296 297 304 320 297 300 334 306 299 345 359 354 323 338 329 328 317 307 304 302 301 296 290 299 296 289 284 274 268 260 256 253 248 233 233 237 226 227 225 233 235 233 240
295 296 301 299 304 346 315 325 310 10 299 319 315 307 295 355 3 9 349 313 303 291 294 295 296 289 289 275 272 264 255 254 244 229 228 232 226 229 229 230 233 236 235
293 298 302 314 320 317 337 336 340 336 332 17 17 349 333 324 325 323 322 318 315 331 309 291 284 281 283 284 280 265 257 258 237 235 231 236 217 219 224 231 234 231 230
323 325 336 337 344 348 352 353 348 332 336 342 340 348 338 332 341 337 337 335 330 323 326 329 308 296 284 275 267 273 262 256 243 233 228 256 227 235 223 231 235 236 237
336 330 328 345 336 319 335 326 337 334 338 334 329 339 331 335 340 333 333 335 307 328 295 327 321 320 317 295 279 265 262 257 249 237 221 225 229 233 229 229 231 236 233
313 324 321 330 325 332 337 331 334 331 332 329 333 333 335 335 330 332 333 332 329 325 323 322 322 312 324 312 304 288 271 261 248 234 230 226 234 235 234 233 226 230 237
331 344 313 329 306 326 322 324 329 324 333 323 323 321 322 320 321 328 329 328 325 321 325 322 318 316 313 311 307 301 292 277 263 251 237 230 229 230 236 238 231 229 232
324 323 332 325 321 322 307 313 314 318 325 327 322 320 314 310 313 316 320 320 321 319 317 312 311 309 312 309 309 303 296 288 283 267 252 243 237 232 239 232 235 266 230
315 314 311 311 310 310 313 313 318 320 321 320 319 317 314 315 313 313 311 311 312 314 311 310 302 308 305 300 301 303 300 295 287 279 275 260 244 241 238 240 236 239 235
298 304 296 301 305 306 311 315 319 316 315 314 313 315 313 312 313 311 310 309 303 304 297 310 307 303 301 294 293 293 285 283 290 286 277 267 258 256 242 242 238 241 238
298 296 300 301 304 305 310 309 304 309 301 308 306 306 313 312 311 311 311 311 307 305 303 303 301 296 294 294 281 291 282 278 280 282 279 276 266 258 248 252 241 242 244
290 293 291 290 293 299 293 295 294 299 293 309 295 312 312 310 310 295 298 309 292 285 299 299 289 299 298 296 293 283 275 281 276 264 266 270 269 268 262 253 248 241 240
287 299 283 289 288 303 298 300 301 303 306 303 294 298 302 301 302 290 306 304 305 303 303 299 296 282 289 286 276 274 286 276 270 270 264 258 262 262 262 260 255 248 241
292 295 300 305 296 299 287 299 298 299 299 293 295 304 287 293 308 306 302 308 308 286 276 296 299 292 294 293 289 286 281 278 273 265 264 261 254 255 259 257 256 254 251
300 296 297 313 298 305 296 302 298 303 306 294 309 309 302 285 307 303 302 301 297 302 300 290 295 290 290 289 288 285 283 277 276 270 267 263 258 256 256 254 252 251 252
301 295 318 306 301 302 294 305 306 309 287 309 296 305 300 306 305 298 303 305 301 299 296 295 294 291 290 290 282 282 280 278 274 270 266 264 261 257 253 252 251 251 250
298 302 304 308 308 311 311 309 308 294 307 306 302 306 306 304 290 304 302 300 299 298 296 295 292 292 292 289 283 284 275 277 272 268 266 262 259 257 254 251 249 248 249
308 305 309 312 311 308 311 305 304 304 303 303 303 303 303 302 301 299 298 297 298 296 296 296 294 292 291 290 286 284 279 265 271 270 267 266 264 260 256 252 248 249 248
311 308 306 304 303 305 304 303 304 303 300 302 302 301 299 298 299 299 298 299 300 304 302 299 293 292 291 288 285 283 277 273 269 268 267 265 264 261 260 256 256 254 249